I1SCL Weather Reports


time (UTC)temp
C
wind
direction
speed
KPH
gust
KPH
rain 1hr
cm
rain 24hr
cm
rain mn
cm
humidity
%
barometer
mb
20260507234625 13 90 0.0 0.0 0.00 0.00 0.00 81 1011.3
20260507234122 13 113 0.0 3.2 0.00 0.00 0.00 81 1011.4
20260507233625 13 113 3.2 4.8 0.00 0.00 0.00 81 1011.4
20260507233122 13 113 3.2 6.4 0.00 0.00 0.00 81 1011.3
20260507232625 13 113 0.0 6.4 0.00 0.00 0.00 81 1011.3
20260507232125 13 113 4.8 6.4 0.00 0.00 0.00 81 1011.3
20260507231631 13 113 3.2 6.4 0.00 0.00 0.00 80 1011.5
20260507231122 13 113 4.8 6.4 0.00 0.00 0.00 80 1011.5
20260507230625 13 113 3.2 6.4 0.00 0.00 0.00 81 1011.4
20260507230122 13 113 3.2 6.4 0.00 0.00 0.00 81 1011.3
20260507225625 13 113 4.8 9.7 0.00 0.00 0.00 81 1011.5
20260507225128 13 90 3.2 9.7 0.00 0.00 0.00 81 1011.4
20260507224626 13 90 3.2 9.7 0.00 0.00 0.00 81 1011.5
20260507224122 14 90 4.8 9.7 0.00 0.00 0.00 81 1011.5
20260507223622 13 90 4.8 9.7 0.00 0.00 0.00 81 1011.5
20260507223125 13 113 4.8 6.4 0.00 0.00 0.00 81 1011.5
20260507222622 14 113 4.8 9.7 0.00 0.00 0.00 81 1011.6
20260507222122 14 113 6.4 9.7 0.00 0.00 0.00 81 1011.7
20260507221622 14 90 6.4 9.7 0.00 0.00 0.00 80 1011.5
20260507221125 14 113 4.8 9.7 0.00 0.00 0.00 80 1011.7
20260507220622 14 113 4.8 9.7 0.00 0.00 0.00 80 1011.6
20260507220125 14 68 4.8 9.7 0.00 0.00 0.00 80 1011.5
20260507215628 14 68 4.8 9.7 0.00 0.00 0.00 80 1011.4
20260507215125 14 68 4.8 9.7 0.00 0.00 0.00 79 1011.5
20260507214622 14 68 4.8 9.7 0.00 0.00 0.00 79 1011.4
20260507214122 14 68 4.8 9.7 0.00 0.00 0.00 79 1011.5
20260507213622 14 68 4.8 6.4 0.00 0.00 0.00 78 1011.4
20260507213125 14 68 4.8 6.4 0.00 0.00 0.00 78 1011.5
20260507212622 14 90 4.8 6.4 0.00 0.00 0.00 78 1011.4
20260507212125 14 68 4.8 6.4 0.00 0.00 0.00 78 1011.4
20260507211622 14 68 3.2 6.4 0.00 0.00 0.00 77 1011.3
20260507211125 14 90 3.2 6.4 0.00 0.00 0.00 77 1011.2
20260507210625 14 113 4.8 9.7 0.00 0.00 0.00 77 1011.3
20260507210122 15 90 4.8 9.7 0.00 0.00 0.00 77 1011.2
20260507205629 15 90 3.2 9.7 0.00 0.00 0.00 76 1011.3
20260507205125 15 90 4.8 9.7 0.00 0.00 0.00 75 1011.2
20260507204622 15 68 4.8 9.7 0.00 0.00 0.00 75 1011.0
20260507204122 15 90 4.8 9.7 0.00 0.00 0.00 74 1011.0
20260507203625 15 68 4.8 9.7 0.00 0.00 0.00 75 1011.1
20260507203125 14 90 1.6 9.7 0.00 0.00 0.00 76 1011.0
20260507202625 14 90 4.8 4.8 0.00 0.00 0.00 77 1011.0
20260507202122 14 68 4.8 6.4 0.00 0.00 0.00 78 1011.2
20260507201622 14 90 3.2 6.4 0.00 0.00 0.00 78 1011.0
20260507201122 14 68 4.8 4.8 0.00 0.00 0.00 78 1011.3
20260507200622 14 68 3.2 4.8 0.00 0.00 0.00 78 1011.4
20260507200125 14 68 3.2 4.8 0.00 0.00 0.00 78 1011.1
20260507195628 14 90 4.8 6.4 0.00 0.00 0.00 78 1011.3
20260507195122 14 68 1.6 4.8 0.00 0.00 0.00 78 1011.1
20260507194622 14 68 1.6 4.8 0.00 0.00 0.00 78 1011.2
20260507194125 14 68 3.2 4.8 0.00 0.00 0.00 78 1011.0
20260507193622 14 90 3.2 4.8 0.00 0.00 0.00 78 1011.2
20260507193128 14 68 1.6 3.2 0.00 0.00 0.00 77 1010.9
20260507192622 14 68 3.2 3.2 0.00 0.00 0.00 77 1011.0
20260507192125 15 113 0.0 3.2 0.00 0.00 0.00 77 1011.0
20260507191625 14 135 0.0 3.2 0.00 0.00 0.00 77 1010.9
20260507191125 14 135 0.0 3.2 0.00 0.00 0.00 77 1010.9
20260507190622 14 135 0.0 3.2 0.00 0.00 0.00 77 1010.8
20260507190129 14 135 0.0 1.6 0.00 0.00 0.00 77 1010.7
20260507185622 14 135 0.0 1.6 0.00 0.00 0.00 77 1010.7
20260507185125 15 135 0.0 3.2 0.00 0.00 0.00 77 1010.6
20260507184625 14 135 0.0 4.8 0.00 0.00 0.00 77 1010.5
20260507184125 14 135 3.2 4.8 0.00 0.00 0.00 76 1010.7
20260507183625 15 158 1.6 3.2 0.00 0.00 0.00 76 1010.6
20260507183122 15 158 1.6 4.8 0.00 0.00 0.00 76 1010.5
20260507182625 15 158 3.2 4.8 0.00 0.00 0.00 76 1010.7
20260507182122 15 203 0.0 3.2 0.00 0.00 0.00 76 1010.3
20260507181628 15 248 0.0 1.6 0.00 0.00 0.00 76 1010.7
20260507181122 15 248 0.0 4.8 0.00 0.00 0.00 76 1010.7
20260507180625 15 270 1.6 6.4 0.00 0.00 0.00 75 1010.3
20260507180125 15 315 3.2 4.8 0.00 0.00 0.00 74 1010.6
20260507175625 15 293 3.2 4.8 0.00 0.00 0.00 72 1010.2
20260507175125 16 203 1.6 3.2 0.00 0.00 0.00 73 1010.2
20260507174622 16 203 1.6 1.6 0.00 0.00 0.00 72 1010.2
20260507174125 16 203 0.0 3.2 0.00 0.00 0.00 71 1010.3
20260507173622 16 225 0.0 1.6 0.00 0.00 0.00 70 1010.2
20260507173122 16 293 0.0 3.2 0.00 0.00 0.00 70 1010.5
20260507172622 16 248 0.0 4.8 0.00 0.00 0.00 69 1010.3
20260507172131 16 293 1.6 3.2 0.00 0.00 0.00 69 1010.3
20260507171625 16 270 0.0 4.8 0.00 0.00 0.00 71 1010.1
20260507171122 16 315 3.2 6.4 0.00 0.00 0.00 72 1010.6
20260507170622 16 315 4.8 6.4 0.00 0.00 0.00 71 1010.3
20260507170122 16 270 4.8 14.5 0.00 0.00 0.00 71 1010.3
20260507165631 16 270 6.4 12.9 0.00 0.00 0.00 68 1010.5
20260507165128 16 270 8.0 14.5 0.00 0.00 0.00 68 1010.6
20260507164622 16 293 9.7 14.5 0.00 0.00 0.00 66 1010.6
20260507164128 17 270 9.7 12.9 0.00 0.00 0.00 64 1010.6
20260507163625 17 293 6.4 12.9 0.00 0.00 0.00 63 1010.6
20260507163122 17 293 8.0 12.9 0.00 0.00 0.00 63 1010.5
20260507162622 16 248 8.0 16.1 0.00 0.00 0.00 64 1010.5
20260507162122 16 293 6.4 14.5 0.00 0.00 0.00 65 1010.3
20260507161622 17 293 6.4 16.1 0.00 0.00 0.00 68 1010.5
20260507161122 17 248 12.9 16.1 0.00 0.00 0.00 67 1010.3
20260507160622 17 293 8.0 14.5 0.00 0.00 0.00 66 1010.3
20260507160125 16 270 6.4 12.9 0.00 0.00 0.00 67 1010.7
20260507155625 16 293 6.4 9.7 0.00 0.00 0.00 67 1010.2
20260507155122 16 315 6.4 12.9 0.00 0.00 0.00 67 1010.2
20260507154622 17 248 8.0 12.9 0.00 0.00 0.00 66 1010.2
20260507154122 17 270 11.3 17.7 0.00 0.00 0.00 63 1010.1
20260507153622 16 293 11.3 19.3 0.00 0.00 0.00 66 1010.3
20260507153125 17 270 8.0 16.1 0.00 0.00 0.00 65 1010.2
20260507152622 16 270 8.0 14.5 0.00 0.00 0.00 65 1010.3
20260507152122 17 270 11.3 17.7 0.00 0.00 0.00 67 1010.2
20260507151625 17 270 12.9 16.1 0.00 0.00 0.00 67 1010.5
20260507151122 17 270 9.7 14.5 0.00 0.00 0.00 64 1010.3
20260507150625 17 293 8.0 16.1 0.00 0.00 0.00 66 1010.1
20260507150125 16 315 8.0 14.5 0.00 0.00 0.00 69 1010.1
20260507145628 16 293 9.7 16.1 0.00 0.00 0.00 69 1010.3
20260507145122 16 293 12.9 16.1 0.00 0.00 0.00 70 1010.1
20260507144628 17 270 9.7 12.9 0.00 0.00 0.00 69 1010.2
20260507144122 16 293 9.7 17.7 0.00 0.00 0.00 68 1010.5
20260507143622 16 270 12.9 17.7 0.00 0.00 0.00 69 1010.6
20260507143128 17 270 14.5 19.3 0.00 0.00 0.00 72 1010.3
20260507142622 17 270 12.9 17.7 0.00 0.00 0.00 70 1010.3
20260507142125 17 270 9.7 16.1 0.00 0.00 0.00 70 1010.5
20260507141622 17 270 11.3 17.7 0.00 0.00 0.00 70 1010.5
20260507141125 17 248 9.7 14.5 0.00 0.00 0.00 69 1010.6
20260507140622 17 248 8.0 14.5 0.00 0.00 0.00 67 1010.7
20260507140125 18 225 4.8 9.7 0.00 0.00 0.00 63 1010.8
20260507135625 18 225 3.2 6.4 0.00 0.00 0.00 64 1010.7
20260507135122 18 158 0.0 9.7 0.00 0.00 0.00 63 1010.7
20260507134622 18 225 4.8 9.7 0.00 0.00 0.00 61 1010.8
20260507134122 17 315 4.8 9.7 0.00 0.00 0.00 62 1010.9
20260507133628 18 203 1.6 6.4 0.00 0.00 0.00 61 1011.0
20260507133128 17 113 1.6 9.7 0.00 0.00 0.00 59 1011.0
20260507132625 17 158 4.8 9.7 0.00 0.00 0.00 61 1010.9
20260507132128 17 270 4.8 9.7 0.00 0.00 0.00 63 1011.3
20260507131622 17 225 4.8 9.7 0.00 0.00 0.00 62 1011.4
20260507131122 18 90 1.6 6.4 0.00 0.00 0.00 61 1011.2
20260507130625 17 135 1.6 12.9 0.00 0.00 0.00 63 1011.3
20260507130128 17 135 4.8 14.5 0.00 0.00 0.00 63 1011.2
20260507125626 17 158 3.2 9.7 0.00 0.00 0.00 64 1011.3
20260507125131 17 135 4.8 12.9 0.00 0.00 0.00 65 1011.2
20260507124625 17 158 8.0 14.5 0.00 0.00 0.00 66 1011.1
20260507124125 16 135 9.7 14.5 0.00 0.00 0.00 65 1011.1
20260507123628 16 158 9.7 16.1 0.00 0.00 0.00 66 1010.9
20260507123122 16 135 11.3 16.1 0.00 0.00 0.00 67 1010.9
20260507122622 16 113 9.7 14.5 0.00 0.00 0.00 69 1011.2
20260507122128 16 90 8.0 17.7 0.00 0.00 0.00 70 1010.8
20260507121622 16 158 14.5 17.7 0.00 0.00 0.00 70 1010.8
20260507121125 17 135 6.4 16.1 0.00 0.00 0.00 68 1010.7
20260507120622 17 158 9.7 16.1 0.00 0.00 0.00 71 1010.7
20260507120122 17 113 9.7 14.5 0.00 0.00 0.00 68 1010.6
20260507115622 17 68 4.8 19.3 0.00 0.00 0.00 70 1010.9
20260507115122 17 135 4.8 16.1 0.00 0.00 0.00 68 1010.6
20260507114626 17 90 8.0 20.9 0.00 0.00 0.00 73 1010.3
20260507114125 17 113 8.0 17.7 0.00 0.00 0.00 72 1010.8
20260507113625 16 135 8.0 14.5 0.00 0.00 0.00 72 1010.6
20260507113125 17 113 4.8 12.9 0.00 0.00 0.00 72 1010.7
20260507112622 17 158 3.2 16.1 0.00 0.00 0.00 73 1010.7
20260507112122 16 135 4.8 16.1 0.00 0.00 0.00 75 1010.6
20260507111622 16 158 6.4 17.7 0.00 0.00 0.00 74 1010.9
20260507111125 16 135 9.7 17.7 0.00 0.00 0.00 74 1011.2
20260507110622 17 135 4.8 16.1 0.00 0.00 0.00 74 1011.1
20260507110125 17 248 6.4 16.1 0.00 0.00 0.00 74 1011.0
20260507105623 17 135 8.0 14.5 0.00 0.00 0.00 70 1010.9
20260507105122 16 113 9.7 16.1 0.00 0.00 0.00 72 1010.8
20260507104622 17 180 1.6 16.1 0.00 0.00 0.00 75 1010.9
20260507104122 16 158 4.8 14.5 0.00 0.00 0.00 74 1011.0
20260507103622 17 135 4.8 16.1 0.00 0.00 0.00 74 1011.1
20260507103125 16 135 9.7 16.1 0.00 0.00 0.00 74 1010.9
20260507102622 16 113 6.4 17.7 0.00 0.00 0.00 75 1010.6
20260507102125 16 135 9.7 16.1 0.00 0.00 0.00 74 1010.9
20260507101628 16 113 9.7 16.1 0.00 0.00 0.00 73 1010.9
20260507101122 16 90 4.8 19.3 0.00 0.00 0.00 75 1011.0
20260507100622 16 135 9.7 16.1 0.00 0.00 0.00 75 1011.1
20260507100122 16 45 4.8 17.7 0.00 0.00 0.00 76 1010.9
20260507095622 16 135 11.3 17.7 0.00 0.00 0.00 74 1010.9
20260507095125 16 90 11.3 16.1 0.00 0.00 0.00 75 1011.0
20260507094625 16 180 9.7 17.7 0.00 0.00 0.00 77 1011.1
20260507094122 16 158 9.7 20.9 0.00 0.00 0.00 77 1011.0
20260507093628 16 90 9.7 20.9 0.00 0.00 0.00 77 1011.0
20260507093122 16 113 4.8 14.5 0.00 0.00 0.00 76 1010.7
20260507092625 16 248 8.0 9.7 0.00 0.00 0.00 78 1010.8
20260507092122 16 90 4.8 16.1 0.00 0.00 0.00 78 1010.9
20260507091622 16 135 12.9 16.1 0.00 0.00 0.00 77 1010.7
20260507091122 16 158 11.3 17.7 0.00 0.00 0.00 76 1011.0
20260507090625 16 158 11.3 17.7 0.00 0.00 0.00 75 1010.8
20260507090125 16 180 6.4 17.7 0.00 0.00 0.00 75 1010.7
20260507085622 16 135 3.2 12.9 0.00 0.00 0.00 76 1010.7
20260507085122 16 135 8.0 14.5 0.00 0.00 0.00 76 1010.7
20260507084625 16 158 8.0 14.5 0.00 0.00 0.00 77 1010.6
20260507084125 16 90 6.4 14.5 0.00 0.00 0.00 76 1010.6
20260507083622 15 113 9.7 14.5 0.00 0.00 0.00 74 1010.7
20260507083122 16 113 3.2 17.7 0.00 0.00 0.00 75 1010.5
20260507082628 16 180 4.8 12.9 0.00 0.00 0.00 73 1010.2
20260507082122 16 135 6.4 14.5 0.00 0.00 0.00 72 1010.2
20260507081625 16 203 3.2 16.1 0.00 0.00 0.00 73 1010.6
20260507081122 16 90 9.7 12.9 0.00 0.00 0.00 71 1010.1
20260507080622 16 135 6.4 14.5 0.00 0.00 0.00 72 1010.3
20260507080125 16 113 4.8 12.9 0.00 0.00 0.00 71 1010.2
20260507075622 16 113 4.8 12.9 0.00 0.00 0.00 70 1010.2
20260507075128 16 113 0.0 9.7 0.00 0.00 0.00 71 1010.5
20260507074625 16 113 4.8 9.7 0.00 0.00 0.00 70 1010.5
20260507074128 16 68 4.8 9.7 0.00 0.00 0.00 69 1010.5
20260507073622 16 90 3.2 6.4 0.00 0.00 0.00 69 1010.3
20260507073125 16 113 4.8 6.4 0.00 0.00 0.00 68 1010.3
20260507072622 16 113 4.8 6.4 0.00 0.00 0.00 68 1010.3
20260507072122 16 113 4.8 6.4 0.00 0.00 0.00 68 1010.2
20260507071622 16 135 1.6 6.4 0.00 0.00 0.00 68 1010.2
20260507071122 16 135 4.8 9.7 0.00 0.00 0.00 68 1009.9
20260507070628 16 90 4.8 9.7 0.00 0.00 0.00 71 1010.0
20260507070122 16 135 4.8 6.4 0.00 0.00 0.00 70 1010.0
20260507065625 15 158 1.6 9.7 0.00 0.00 0.00 71 1010.0
20260507065122 16 135 3.2 6.4 0.00 0.00 0.00 71 1009.8
20260507064625 15 113 0.0 9.7 0.00 0.00 0.00 71 1010.0
20260507064122 15 113 4.8 9.7 0.00 0.00 0.00 73 1009.9
20260507063625 15 113 4.8 6.4 0.00 0.00 0.00 75 1009.9
20260507063122 14 90 0.0 1.6 0.00 0.00 0.00 77 1009.9
20260507062622 14 23 0.0 1.6 0.00 0.00 0.00 78 1009.5
20260507062122 14 23 0.0 1.6 0.00 0.00 0.00 77 1009.7
20260507061622 14 315 0.0 3.2 0.00 0.00 0.00 77 1009.6
20260507061125 15 45 0.0 1.6 0.00 0.00 0.00 76 1009.6
20260507060623 15 113 0.0 0.0 0.00 0.00 0.00 75 1009.5
20260507060125 15 113 0.0 1.6 0.00 0.00 0.00 75 1009.5
20260507055628 15 68 0.0 3.2 0.00 0.00 0.00 76 1009.4
20260507055122 15 90 0.0 4.8 0.00 0.00 0.00 76 1009.5
20260507054622 15 90 3.2 4.8 0.00 0.00 0.00 76 1009.2
20260507054122 15 68 3.2 6.4 0.00 0.00 0.00 76 1009.5
20260507053622 15 113 3.2 6.4 0.00 0.00 0.00 75 1009.0
20260507053122 15 90 3.2 9.7 0.00 0.00 0.00 75 1009.2
20260507052625 15 90 6.4 9.7 0.00 0.00 0.00 74 1009.0
20260507052128 15 68 3.2 9.7 0.00 0.00 0.00 74 1008.8
20260507051625 14 90 3.2 6.4 0.00 0.00 0.00 75 1008.9
20260507051122 14 113 4.8 9.7 0.00 0.00 0.00 75 1008.9
20260507050628 14 90 6.4 12.9 0.00 0.00 0.00 75 1008.6
20260507050122 13 90 6.4 12.9 0.00 0.00 0.00 76 1008.5
20260507045625 13 90 8.0 14.5 0.00 0.00 0.00 76 1008.4
20260507045122 13 113 6.4 14.5 0.00 0.00 0.00 76 1008.5
20260507044622 13 90 6.4 12.9 0.00 0.00 0.00 77 1008.5
20260507044128 13 113 4.8 9.7 0.00 0.00 0.00 78 1008.3
20260507043622 13 113 8.0 12.9 0.00 0.00 0.00 78 1008.5
20260507043125 13 113 4.8 14.5 0.00 0.00 0.00 79 1008.2
20260507042622 13 90 8.0 12.9 0.00 0.00 0.00 79 1008.2
20260507042122 13 135 6.4 12.9 0.00 0.00 0.00 80 1008.2
20260507041625 13 113 4.8 12.9 0.00 0.00 0.00 80 1008.5
20260507041125 13 68 9.7 14.5 0.00 0.00 0.00 80 1008.2
20260507040622 13 113 6.4 9.7 0.00 0.00 0.00 80 1008.2
20260507040122 13 90 6.4 9.7 0.00 0.00 0.00 80 1008.2
20260507035625 13 113 4.8 12.9 0.00 0.00 0.00 80 1008.3
20260507035122 13 113 9.7 12.9 0.00 0.00 0.00 80 1008.1
20260507034622 13 90 8.0 12.9 0.00 0.00 0.00 79 1008.2
20260507034125 13 90 6.4 12.9 0.00 0.03 0.00 78 1008.2
20260507033625 13 90 4.8 12.9 0.00 0.08 0.00 78 1008.2
20260507033122 13 90 6.4 9.7 0.00 0.13 0.00 78 1008.1
20260507032625 13 90 6.4 9.7 0.00 0.25 0.00 78 1008.0
20260507032125 13 113 4.8 9.7 0.00 0.28 0.00 78 1008.2
20260507031625 13 113 4.8 9.7 0.00 0.30 0.00 78 1008.0
20260507031128 13 113 4.8 9.7 0.00 0.30 0.00 80 1008.0
20260507030622 13 113 3.2 6.4 0.00 0.30 0.00 81 1008.2
20260507030122 13 113 4.8 6.4 0.00 0.30 0.00 81 1008.1
20260507025622 13 135 3.2 4.8 0.00 0.30 0.00 80 1008.2
20260507025122 13 113 4.8 6.4 0.00 0.30 0.00 80 1007.9
20260507024622 13 113 4.8 6.4 0.00 0.30 0.00 80 1008.1
20260507024131 13 113 4.8 6.4 0.00 0.30 0.00 81 1008.0
20260507023625 13 113 4.8 6.4 0.00 0.30 0.00 82 1008.0
20260507023122 13 113 4.8 6.4 0.00 0.30 0.00 82 1007.9
20260507022631 13 113 1.6 6.4 0.00 0.30 0.00 83 1007.8
20260507022122 13 113 4.8 6.4 0.00 0.30 0.00 83 1008.0
20260507021628 13 90 4.8 6.4 0.00 0.30 0.00 83 1007.7
20260507021126 13 113 1.6 4.8 0.00 0.30 0.00 82 1007.9
20260507020623 13 90 1.6 4.8 0.00 0.30 0.00 82 1007.9
20260507020125 13 113 3.2 4.8 0.00 0.30 0.00 82 1007.8
20260507015622 13 113 0.0 4.8 0.00 0.30 0.00 82 1007.7
20260507015125 13 113 1.6 3.2 0.00 0.30 0.00 81 1007.7
20260507014622 13 113 3.2 3.2 0.00 0.30 0.00 79 1007.6
20260507014122 14 135 0.0 3.2 0.00 0.30 0.00 78 1007.7
20260507013622 14 203 1.6 4.8 0.00 0.30 0.00 79 1007.7
20260507013122 13 248 0.0 1.6 0.00 0.30 0.00 79 1007.5
20260507012622 13 315 0.0 3.2 0.00 0.30 0.00 79 1007.5
20260507012131 13 338 1.6 3.2 0.00 0.30 0.00 79 1007.7
20260507011625 13 0 0.0 1.6 0.00 0.30 0.00 79 1007.5
20260507010625 13 338 1.6 3.2 0.00 0.30 0.00 79 1007.6
20260507010128 13 0 0.0 3.2 0.00 0.30 0.00 79 1007.5
20260507005622 14 23 1.6 3.2 0.00 0.30 0.00 79 1007.6
20260507005128 13 90 1.6 3.2 0.00 0.30 0.00 79 1007.5
20260507004622 13 90 1.6 3.2 0.00 0.30 0.00 79 1007.7
20260507004125 13 90 0.0 0.0 0.00 0.30 0.00 79 1007.6
20260507003625 13 90 0.0 0.0 0.00 0.30 0.00 78 1007.5
20260507003122 14 90 0.0 0.0 0.00 0.30 0.00 78 1007.5
20260507002625 14 90 0.0 0.0 0.00 0.30 0.00 78 1007.7
20260507002122 14 113 0.0 0.0 0.00 0.30 0.00 78 1007.7
20260507001625 13 113 0.0 0.0 0.00 0.30 0.00 78 1007.6
20260507001125 14 113 0.0 0.0 0.00 0.30 0.00 78 1007.5
20260507000631 14 90 0.0 0.0 0.00 0.30 0.00 78 1007.6
20260507000125 14 90 0.0 0.0 0.00 0.30 0.00 78 1007.6
20260506235625 14 90 0.0 0.0 0.00 0.36 0.00 79 1007.7
20260506235126 14 90 0.0 0.0 0.00 0.36 0.00 79 1007.8